Weather History for Huntington, WV

Change the Weather History Date:

Friday, May 16, 2014

  Actual Average Record
Temperature  
Mean Temperature 52 °F 64 °F  
Max Temperature 61 °F 75 °F 94 °F (1900)
Min Temperature 43 °F 53 °F 35 °F (1997)
Degree Days  
Heating Degree Days 13 4  
Month to date heating degree days 62 75  
Since 1 July heating degree days 4773 4463  
Cooling Degree Days 0 3  
Month to date cooling degree days 46 28  
Year to date cooling degree days 60 60  
Growing Degree Days 2 (Base 50)    
Moisture  
Dew Point 45 °F    
Average Humidity 77    
Maximum Humidity 100    
Minimum Humidity 53    
Precipitation  
Precipitation 0.05 in 0.15 in 1.61 in (2001)
Month to date precipitation 1.35 2.36  
Year to date precipitation 18.33 15.74  
Snow  
Snow 0.00 in - - ()
Month to date snowfall 0.0  
Since 1 September snowfall 36.8  
Snow Depth 0.00 in    
Sea Level Pressure  
Sea Level Pressure 30.01 in    
Wind  
Wind Speed 4 mph (WSW)    
Max Wind Speed 18 mph    
Max Gust Speed 28 mph    
Visibility 10 miles    
Events Rain , Thunderstorm    
T = Trace of Precipitation, MM = Missing Value Source: NWS Daily Summary

Daily Weather History Graph

Daily Weather History Graph

Search for Another Location

Airport:

Trip Planner

Search our weather history database for the weather conditions in past years. The results will help you decide how hot, cold, wet, or windy it might be!

Date:

Astronomy

May. 16, 2014 Rise Set
Actual Time 6:18 AM EDT 8:35 PM EDT
Civil Twilight 5:48 AM EDT 9:05 PM EDT
Nautical Twilight 5:11 AM EDT 9:42 PM EDT
Astronomical Twilight 4:31 AM EDT 10:22 PM EDT
Moon 10:41 PM EDT (5/16) 7:58 AM EDT (5/16)
Length of Visible Light 15h 17m
Length of Day
14h 17m
Waning Gibbous, 95% of the Moon is Illuminated
May 16
Waning Gibbous
May 21
Last Quarter
May 28
New
Jun 5
First Quarter
Jun 13
Full

Hourly Weather History & Observations

Time (EDT) Temp. Dew Point Humidity Pressure Visibility Wind Dir Wind Speed Gust Speed Precip Events Conditions
12:51 AM 50.0 °F 45.0 °F 83% 30.05 in 10.0 mi West 4.6 mph - N/A   Overcast
1:51 AM 50.0 °F 45.0 °F 83% 30.04 in 10.0 mi WSW 3.5 mph - N/A   Overcast
2:51 AM 48.9 °F 45.0 °F 86% 30.02 in 10.0 mi WSW 3.5 mph - N/A   Overcast
3:05 AM 48.9 °F 45.0 °F 86% 30.02 in 10.0 mi WSW 4.6 mph - N/A   Overcast
3:51 AM 48.0 °F 45.0 °F 89% 30.01 in 10.0 mi Calm Calm - N/A   Mostly Cloudy
4:08 AM 48.0 °F 45.0 °F 89% 30.01 in 10.0 mi NW 3.5 mph - N/A   Scattered Clouds
4:51 AM 46.9 °F 44.1 °F 90% 30.01 in 10.0 mi NW 4.6 mph - N/A   Partly Cloudy
5:51 AM 45.0 °F 44.1 °F 97% 30.00 in 10.0 mi Calm Calm - N/A   Clear
6:51 AM 44.1 °F 43.0 °F 96% 30.01 in 10.0 mi Calm Calm - N/A   Clear
7:51 AM 46.9 °F 45.0 °F 93% 30.01 in 10.0 mi Calm Calm - N/A   Partly Cloudy
8:51 AM 51.1 °F 45.0 °F 80% 30.01 in 10.0 mi Calm Calm - N/A   Partly Cloudy
8:55 AM 51.1 °F 46.0 °F 83% 30.01 in 10.0 mi Calm Calm - N/A   Mostly Cloudy
9:51 AM 51.1 °F 43.0 °F 74% 30.01 in 10.0 mi SE 4.6 mph - N/A   Partly Cloudy
10:51 AM 55.9 °F 44.1 °F 64% 30.00 in 10.0 mi SSW 6.9 mph - N/A   Mostly Cloudy
11:51 AM 55.0 °F 43.0 °F 64% 30.00 in 10.0 mi SW 6.9 mph - N/A   Overcast
12:51 PM 59.0 °F 42.1 °F 53% 29.98 in 10.0 mi Variable 3.5 mph - N/A   Mostly Cloudy
1:51 PM 55.0 °F 45.0 °F 69% 29.97 in 10.0 mi WSW 8.1 mph - 0.00 in Rain Light Rain
2:47 PM 48.2 °F 44.6 °F 87% 29.98 in 5.0 mi WSW 10.4 mph 27.6 mph 0.01 in Rain , Thunderstorm Light Thunderstorms and Rain
2:51 PM 48.0 °F 45.0 °F 89% 29.99 in 6.0 mi West 10.4 mph - 0.01 in Rain , Thunderstorm Light Thunderstorms and Rain
3:25 PM 52.0 °F 46.9 °F 83% 29.98 in 10.0 mi West 8.1 mph - 0.02 in Rain Light Rain
3:51 PM 53.6 °F 48.2 °F 82% 29.98 in 10.0 mi NW 5.8 mph - N/A   Overcast
4:51 PM 53.6 °F 46.4 °F 77% 29.97 in 10.0 mi NNE 3.5 mph - N/A   Mostly Cloudy
5:17 PM 54.0 °F 45.0 °F 72% 29.97 in 10.0 mi Calm Calm - N/A   Mostly Cloudy
5:51 PM 55.9 °F 46.9 °F 72% 29.97 in 10.0 mi Calm Calm - N/A   Overcast
6:51 PM 51.1 °F 45.0 °F 80% 30.00 in 10.0 mi Variable 3.5 mph - 0.02 in   Overcast
7:51 PM 48.9 °F 46.9 °F 93% 30.03 in 10.0 mi East 5.8 mph - N/A   Overcast
8:51 PM 48.0 °F 46.0 °F 93% 30.05 in 10.0 mi East 5.8 mph - N/A   Overcast
9:51 PM 48.9 °F 46.0 °F 90% 30.07 in 10.0 mi WSW 6.9 mph - 0.00 in   Overcast
10:51 PM 46.9 °F 41.0 °F 80% 30.07 in 10.0 mi SSW 3.5 mph - N/A   Partly Cloudy
11:51 PM 45.0 °F 42.1 °F 90% 30.09 in 10.0 mi Calm Calm - N/A   Clear